Regional Weather Roundup
Issued by NWS Jackson, KY

Home | Current Version | Previous Version | Text Only | Print | Product List | Glossary On
Versions: 1 2 3 4 5 6 7 8 9 10 11 12 13 14 15 16 17 18 19 20 21 22 23 24 25 26 27 28
000
ASUS43 KJKL 280810
RWRJKL

EAST KENTUCKY HOURLY WEATHER ROUNDUP
NATIONAL WEATHER SERVICE JACKSON KY
400 AM EDT SAT MAY 28 2016

NOTE: "FAIR" INDICATES FEW OR NO CLOUDS BELOW 12,000 FEET WITH
NO SIGNIFICANT WEATHER AND/OR OBSTRUCTIONS TO VISIBILITY.

* THESE REPORTS ARE NOT UNDER NWS QUALITY CONTROL AND MAY NOT
  REPORT WEATHER SUCH AS PRECIPITATION AND FOG.

KYZ079-080-083-085-087-088-110-112-115-119-120-280900
...EASTERN KENTUCKY...

CITY           SKY/WX    TMP DP  RH WIND       PRES   REMARKS
JACKSON        CLEAR     66  63  90 VRB3      30.09S
LONDON         CLEAR     64  61  90 CALM      30.08S
SOMERSET*      CLEAR     63  63 100 CALM      30.08S
MONTICELLO*    PTCLDY    65  64  97 CALM      30.08R
WILLIAMSBURG*  SUNNY     63  63 100 SE7       30.08S
MIDDLESBORO*   CLOUDY    61  61 100 CALM      30.12S FOG
HARLAN APT*    CLOUDY    64  63  94 CALM      30.13S VSB 1/2
HAZARD APT*    MOSUNNY   64  64 100 CALM      30.10S FOG
BLACK MTN*       N/A     61  59  94 N2          N/A
PIKE CO APT*     N/A     68  65  89 SE7       30.11S
BIG SANDY APT* SUNNY     69  65  85 CALM      30.10R
MOREHEAD APT*  PTSUNNY   70  63  78 S7        30.08S
ASHLAND*       PTCLDY    68  66  94 CALM      30.04S
$$

KYZ035-036-041-042-044-050-067-078-099-280900
...CENTRAL KENTUCKY...

CITY           SKY/WX    TMP DP  RH WIND       PRES   REMARKS
MT STERLING*   PTCLDY    70  64  83 SW6       30.07S
FLEMING/MASON* CLOUDY   N/A N/A N/A S6        30.06S
DANVILLE*      CLOUDY    64  63  94 SW3       30.06F
RICHMOND*      CLOUDY    70  63  78 S5        30.06S
LEXINGTON      CLEAR     68  64  87 S7        30.05S
FRANKFORT      CLEAR     69  64  84 SE5       30.02S
LOUISVILLE     LGT RAIN  71  65  81 SE5       30.00R
LEBANON*         N/A     68  66  94 SE6       30.04S
GLASGOW*       CLOUDY    67  67 100 CALM      30.02R
BOWLING GREEN  CLOUDY    71  67  87 SE5       30.00S
$$

KYZ091>093-OHZ055-061-077-WVZ005-015-034-035-042-280900
...SOUTHERN OHIO/WEST VIRGINIA...

CITY           SKY/WX    TMP DP  RH WIND       PRES   REMARKS
COVINGTON      CLOUDY    71  65  81 S8        30.02R
COLUMBUS       MOCLDY    67  64  90 CALM      30.03S
DAYTON         PTCLDY    70  63  78 S7        30.02S
WILMINGTON     CLOUDY    70  63  78 S6        30.03S
HUNTINGTON       N/A     69  65  86 CALM      30.06S
CHARLESTON       N/A     66  63  90 CALM      30.08R
PINEVILLE*     FOG       62  59  91 MISG      30.20R VSB 1
BECKLEY          N/A     66  60  81 SE8       30.17S
BLUEFIELD        N/A     65  58  78 S6        30.20R
LOGAN CO APT*    N/A     70  64  83 CALM      30.12R
$$

VAZ002-007-008-TNZ017-027-036-066-071-280900
...SOUTHWEST VIRGINIA/EAST TENNESSEE...

CITY           SKY/WX    TMP DP  RH WIND       PRES   REMARKS
WISE*            N/A     64  55  72 S8        30.19R
JONESVILLE*      N/A     61  61 100 CALM      30.14S FOG
ABINGDON*        N/A     64  63  98 CALM      30.16S
BRISTOL        FOG       62  61  96 CALM      30.14R VSB 1
SEVIERVILLE*   SUNNY     61  61 100 CALM      30.09S
KNOXVILLE      FOG       65  64  97 E3        30.07F VSB 1/4
OAK RIDGE      FOG       67  66  97 CALM      30.10S VSB 1/4
CROSSVILLE     CLEAR     68  59  73 S5        30.11R
NASHVILLE      CLOUDY    73  64  73 S7        30.00S
$$

...KEY TO REMARKS...
VSB - VISIBILITY IN MILES
WCI - WIND CHILL INDEX
HX  - HEAT INDEX

$$




USA.gov is the U.S. government's official web portal to all federal, state and local government web resources and services.